Location: Finney State Fishing Lake and Wildlife Area
(38.1834°N, 100.3310°W)
Time: 03:34:23
(UTC+00:00)

ISS - Visible Passes

Search period start: 07 December 2022 00:00
Search period end: 17 December 2022 00:00
Orbit: 414 x 420 km, 51.6° (Epoch: 07 December)

Date Brightness Start Highest point End Pass type
(mag) Time Alt. Az. Time Alt. Az. Time Alt. Az.
07 Dec -1.1 01:28:41 10° W 01:31:03 18° SW 01:32:30 14° SSW visible
08 Dec -1.9 00:40:00 10° WNW 00:43:01 32° SW 00:46:02 10° SSE visible
08 Dec -3.2 23:51:36 10° WNW 23:54:54 62° SW 23:58:11 10° SE visible
10 Dec -0.1 00:42:13 10° WSW 00:43:01 11° SW 00:43:49 10° SW visible
10 Dec -0.6 23:52:31 10° W 23:54:59 19° SW 23:57:26 10° S visible
15 Dec -1.3 13:20:36 10° SSW 13:23:31 28° SE 13:26:27 10° ENE visible
16 Dec -0.6 12:33:13 10° S 12:35:20 16° SE 12:37:28 10° E visible
